EHI
0 0 0 0 0 0 0 0 0 0 0 0 0 0 1 1 1 0 0 0 2 4 4 4 4 4 3 2 3 3 1 0 0 0 0 0 0 0 0 1 2 2 1
0 0 0 0 0 0 0 0 0 0 0 0 0 0 0 0 0 0 0 0 2 4 5 4 4 5 4 3 2 2 2 1 1 0 0 0 0 0 0 0 1 1 1
1 0 0 0 0 0 0 0 0 0 0 0 0 0 0 0 0 0 0 0 1 3 4 5 6 6 5 3 2 2 2 2 1 0 0 0 0 0 0 0 0 0 1
1 1 1 0 0 0 0 0 0 0 0 0 0 0 0 0 0 0 0 0 0 1 2 4 6 7 5 3 3 3 3 3 2 1 0 0 0 0 0 0 0 0 0
2 2 2 1 0 0 0 0 0 0 0 1 1 1 0 0 0 0 0 0 0 0 1 2 4 5 5 4 4 5 5 4 4 3 2 1 2 1 0 0 0 0 0
2 2 2 1 0 0 0 1 1 1 1 2 2 2 1 0 0 0 0 0 0 0 0 1 2 2 3 4 5 6 6 5 4 4 3 3 3 2 1 0 0 0 0
4 2 1 0 0 0 1 2 2 2 2 2 3 2 1 0 0 0 0 0 0 0 0 0 0 0 1 2 4 6 7 6 4 3 3 3 3 2 1 0 0 0 0
4 4 2 2 2 1 2 3 3 3 3 3 3 2 1 0 0 0 0 0 0 0 0 0 0 0 0 1 2 5 8 8 6 5 4 3 3 3 1 0 0 0 0
4 5 6 5 5 5 4 4 4 4 4 4 3 2 1 0 0 0 0 0 0 0 0 0 0 0 0 0 0 2 5 7 7 6 5 4 3 3 2 1 1 1 0
5 7 9 8 7 6 5 5 5 5 5 5 4 3 2 0 0 0 0 0 0 0 0 0 0 0 0 0 0 0 1 3 3 4 4 5 4 4 3 3 2 2 1
7 9 11 10 7 5 4 4 4 4 5 5 4 3 2 1 0 0 0 0 0 0 0 0 0 0 0 0 0 0 0 0 1 1 2 3 4 4 4 3 3 2 1
8 10 12 10 7 6 5 5 4 5 5 4 4 3 2 1 0 0 0 0 0 0 0 0 0 0 0 0 0 0 0 0 0 0 0 1 2 3 3 3 3 3 2
8 9 10 9 8 7 7 7 7 6 6 5 4 3 3 3 2 0 0 0 0 0 0 0 0 0 0 0 0 0 0 0 0 0 0 0 0 1 1 1 2 2 2
7 7 7 7 7 7 8 8 7 7 6 5 4 4 4 5 5 3 1 1 0 0 0 0 0 0 0 0 0 0 0 0 0 0 0 0 0 0 0 0 1 1 1
7 7 6 6 6 7 7 7 7 6 6 4 3 4 5 6 7 6 3 2 1 0 0 0 0 0 0 0 0 0 0 0 0 0 0 0 0 0 0 0 0 0 0
8 7 7 6 6 6 6 6 6 6 6 5 4 4 4 5 6 6 4 3 2 1 0 0 1 1 0 0 0 0 0 0 0 0 0 0 0 0 0 0 0 0 0
8 8 7 7 6 6 6 6 6 6 6 6 5 4 3 3 4 5 4 3 3 2 1 0 1 1 0 0 0 0 0 0 0 0 0 0 0 0 0 0 0 0 0
6 8 8 7 6 6 6 6 7 8 7 6 5 4 3 3 3 4 3 3 3 3 1 0 1 1 1 0 0 0 0 0 0 0 0 0 0 0 0 0 0 0 0
4 6 8 7 5 5 5 6 7 8 7 6 5 4 4 3 3 3 3 3 3 3 2 1 1 2 2 1 0 0 0 0 0 0 0 0 0 0 0 0 0 0 0
2 3 5 6 6 5 5 5 5 6 6 5 5 5 4 4 3 3 3 3 3 3 3 3 3 3 2 1 0 0 0 0 0 0 0 0 0 0 0 0 0 0 0
2 2 2 3 5 5 5 4 4 4 4 4 4 4 4 3 3 3 3 3 3 3 4 4 3 3 3 1 1 1 0 0 0 0 0 0 0 0 0 0 0 0 0
4 2 0 1 2 3 4 3 3 4 4 4 3 3 3 3 3 2 2 2 2 3 4 5 4 3 3 3 2 2 1 1 0 0 0 1 1 0 0 0 0 0 0
5 3 1 0 1 2 2 1 2 4 5 5 4 3 3 3 3 2 2 2 1 2 3 4 4 3 3 3 3 3 2 1 1 1 2 2 2 1 0 0 0 0 0
4 3 1 1 1 1 1 0 1 2 4 4 4 3 3 3 3 3 3 2 2 1 1 2 3 2 2 2 2 3 3 2 1 2 3 3 3 2 1 0 0 0 0
2 2 1 1 1 2 1 0 1 2 3 4 4 3 3 3 3 3 3 3 3 2 1 1 1 1 1 1 1 1 2 2 1 2 3 3 3 3 2 0 0 0 0
1 2 1 2 2 3 2 1 1 2 4 4 4 3 3 3 3 2 3 3 3 3 2 2 1 0 0 0 0 1 2 3 2 2 3 3 3 3 1 0 0 0 0
Wind_Speed
1 1 1 2 2 2 2 2 2 3 3 3 3 4 3 3 2 2 1 3 4 4 4 4 5 5 5 5 5 5 5 5 6 7 7 7 7 7 7 7 7 7 7
1 1 1 1 1 2 2 2 3 2 2 2 3 3 3 3 2 2 1 1 2 3 3 4 4 5 5 5 5 5 5 5 5 6 6 7 7 7 8 7 7 6 6
2 2 1 1 1 1 2 2 3 2 2 3 3 3 2 2 2 2 1 1 0 1 2 3 3 4 4 4 4 4 5 5 5 6 6 6 6 6 7 7 6 6 6
2 2 2 1 1 1 2 2 2 2 2 2 2 2 2 1 2 2 1 1 0 0 1 2 2 2 3 4 4 4 5 5 5 5 6 6 6 6 7 7 6 6 6
2 2 2 1 2 2 1 2 2 2 2 2 1 1 1 1 1 1 1 1 0 0 0 1 2 2 3 3 4 4 4 4 5 6 6 6 6 7 7 6 6 6 7
2 2 2 2 2 2 2 2 3 2 2 2 2 2 1 1 1 0 1 0 0 1 0 0 1 1 2 3 2 3 4 3 4 5 6 7 6 6 6 7 6 6 7
2 2 2 2 2 2 2 3 3 3 2 1 2 2 2 2 1 1 1 1 0 0 0 0 1 1 1 2 1 1 2 2 2 4 5 5 6 5 6 6 6 7 7
2 3 3 2 2 2 3 3 3 2 1 1 2 2 2 2 2 2 1 0 0 0 1 1 1 1 1 1 1 1 1 1 1 2 4 4 5 5 6 5 5 5 6
2 2 3 3 3 3 3 3 3 4 2 1 1 2 2 1 1 2 1 1 0 0 1 1 1 1 1 1 1 2 2 1 1 2 3 3 4 4 4 5 5 5 6
1 1 2 3 3 3 3 3 3 3 3 2 1 1 1 2 2 0 2 1 1 0 1 1 1 1 1 1 1 1 1 2 2 2 1 2 3 3 4 4 4 5 6
0 1 2 2 3 2 3 3 3 3 2 2 2 1 1 1 1 2 1 2 1 1 1 1 1 1 1 1 1 1 2 2 2 3 3 3 3 4 4 5 5 5 6
0 0 1 2 2 2 3 3 3 4 3 3 2 2 2 2 2 2 2 1 1 2 1 1 1 1 1 2 3 2 2 2 3 3 3 4 4 5 5 5 5 5 5
1 1 1 1 1 2 2 3 3 3 4 3 3 2 2 1 2 2 2 1 0 1 2 1 1 2 2 2 2 3 2 2 3 4 4 4 4 5 5 6 6 6 5
2 1 1 1 1 2 2 2 2 3 2 3 3 2 2 2 2 2 2 2 1 1 1 2 1 2 2 2 3 3 3 3 3 3 3 4 4 5 5 5 6 6 5
1 0 1 1 1 1 2 2 2 3 3 3 3 3 2 1 1 1 2 2 3 2 2 2 2 2 2 2 2 2 3 3 4 4 4 4 4 4 5 5 6 6 6
1 1 1 1 1 1 2 2 2 2 3 2 2 3 2 2 1 1 2 2 2 2 2 2 2 2 2 2 2 2 3 4 4 4 4 5 5 5 5 5 6 7 7
1 1 2 2 2 2 2 2 2 2 3 3 3 3 3 2 2 2 2 2 2 2 2 2 1 2 2 2 2 2 2 2 2 3 4 4 4 4 5 5 5 6 7
1 2 2 2 2 3 3 3 3 3 3 3 3 3 3 2 2 2 2 2 2 2 2 3 2 1 2 2 2 2 2 2 2 3 3 4 4 4 5 5 5 5 6
2 2 2 3 3 3 3 3 3 3 3 3 3 4 3 3 3 2 3 2 2 2 2 2 2 1 1 1 2 2 2 2 2 2 3 3 3 3 4 5 5 5 6
2 2 2 3 3 3 3 3 3 3 3 3 3 3 3 4 4 4 3 3 2 2 1 1 1 1 1 1 1 1 2 2 2 3 2 2 2 3 4 4 5 5 5
3 2 2 3 3 3 3 3 3 3 3 3 2 3 3 3 4 4 3 3 3 2 2 1 2 1 1 1 1 1 2 2 2 2 2 2 1 2 2 4 5 5 6
3 2 2 3 3 3 3 5 4 3 3 3 3 2 3 3 3 4 4 4 5 4 4 3 2 2 3 3 2 1 1 1 2 1 1 2 1 2 3 2 4 5 6
3 3 3 3 4 4 5 5 6 4 4 3 3 3 2 2 2 3 3 3 3 4 5 5 4 4 4 4 3 3 2 2 3 1 1 2 2 3 3 3 4 5 5
3 3 3 3 3 4 5 6 6 5 4 4 4 4 4 3 3 3 2 2 3 3 4 5 5 5 5 4 4 4 4 3 2 1 2 2 2 3 3 3 4 5 5
3 3 3 3 3 4 4 6 6 4 3 4 4 4 4 4 4 4 3 3 3 3 3 4 5 5 5 5 4 2 2 2 2 2 2 2 2 2 2 2 3 4 5
3 3 3 3 3 4 4 5 6 4 4 3 3 3 5 5 5 5 4 4 4 4 3 2 3 3 3 3 5 5 4 3 2 2 2 3 2 1 2 2 1 2 2
Wind_Direction
98 70 63 56 53 64 79 85 86 87 85 89 98 104 107 106 102 102 113 136 137 145 156 161 161 158 160 160 160 152 146 146 148 148 150 152 156 156 153 152 153 156 158
128 113 83 69 61 71 84 95 97 94 92 97 94 98 104 103 98 106 101 117 136 148 162 171 173 171 172 168 160 154 153 156 158 156 156 158 162 165 165 159 159 164 168
144 136 120 98 78 91 96 92 85 83 90 92 89 96 102 110 117 115 111 108 138 170 168 170 173 172 171 169 169 165 169 174 170 168 168 167 166 168 169 168 170 170 170
152 142 137 140 119 106 104 105 94 87 80 82 81 81 83 105 126 126 118 117 125 183 201 171 163 172 181 184 185 180 179 184 185 181 184 179 172 171 173 172 177 179 175
153 143 147 153 140 126 118 128 105 106 101 90 91 81 71 75 125 133 145 156 127 96 204 207 193 199 200 196 197 195 190 189 192 190 189 185 179 177 172 174 181 186 189
155 147 144 143 141 133 126 120 114 98 104 111 99 69 48 41 70 114 192 182 148 126 106 208 228 240 233 227 219 213 208 205 201 199 197 193 184 181 185 184 190 193 198
156 152 145 140 144 147 148 138 124 108 86 92 90 58 29 35 50 44 57 84 73 201 134 183 214 240 253 243 241 232 227 217 200 202 202 197 192 192 195 195 198 198 198
165 166 159 157 158 147 134 134 127 119 108 95 111 100 39 5 8 25 43 91 260 248 233 232 218 212 216 216 214 217 254 258 225 209 201 198 194 198 206 203 197 192 190
169 173 169 163 161 157 159 157 147 141 145 120 98 129 136 195 316 347 5 6 324 236 256 247 226 231 214 210 228 227 223 258 283 247 213 196 187 190 200 202 199 199 200
159 168 169 167 162 160 161 167 155 148 145 150 133 75 120 146 147 330 333 344 338 274 265 265 258 244 232 224 235 249 255 239 252 263 237 195 188 198 203 207 205 205 207
331 177 170 164 166 166 172 162 152 148 150 156 153 138 115 82 116 147 259 317 329 305 283 261 256 258 252 242 240 246 238 230 235 241 232 220 216 215 216 217 215 210 212
308 259 172 162 172 175 183 175 167 164 166 161 152 143 147 154 172 162 183 233 285 307 300 273 242 248 248 247 250 254 237 232 228 231 237 231 229 230 228 219 211 212 206
252 253 197 180 177 182 186 175 167 175 174 168 172 177 172 179 167 162 158 173 233 319 322 295 260 251 251 250 260 265 249 237 235 233 234 233 232 232 229 221 210 201 199
241 230 192 190 177 176 184 170 170 183 173 176 180 178 180 190 176 168 164 158 161 305 314 290 289 255 260 252 264 256 256 247 250 247 239 235 233 228 225 221 212 204 202
250 210 188 191 199 187 189 175 176 177 172 180 180 179 186 192 178 183 168 166 168 207 259 271 279 276 273 255 267 254 263 266 260 261 253 244 239 230 226 226 216 211 208
236 191 178 194 223 213 198 185 185 175 167 185 182 172 181 191 179 172 169 167 173 186 230 244 254 279 281 281 272 260 266 275 266 266 257 245 239 230 227 230 224 218 214
214 213 217 207 215 220 211 197 201 185 177 187 189 182 195 186 180 180 176 172 180 183 226 264 258 274 261 277 295 278 274 270 274 270 249 238 233 226 224 231 230 226 218
230 223 216 215 223 217 207 200 202 199 192 199 200 188 202 190 183 185 183 192 202 200 205 247 270 280 268 277 285 284 289 282 278 280 250 240 234 233 233 233 233 230 223
230 221 213 222 229 219 210 205 200 202 199 202 201 197 203 188 195 195 191 197 203 198 198 218 258 272 277 300 303 292 296 297 289 288 253 244 238 235 236 235 235 236 231
239 232 221 223 224 219 214 207 199 204 198 203 206 203 203 199 202 201 200 199 189 181 182 204 246 272 274 301 285 289 299 301 299 302 298 271 250 237 242 239 237 235 231
242 240 231 233 226 216 211 197 197 202 197 204 214 219 221 216 204 201 200 193 185 187 187 199 233 249 252 254 251 258 269 296 283 283 297 281 264 260 255 247 239 234 233
243 236 229 228 228 229 212 198 194 195 194 198 218 233 235 226 216 206 203 195 189 192 201 205 222 237 246 240 241 241 249 292 284 288 274 283 255 262 264 255 253 238 236
233 237 235 229 234 237 218 206 202 194 198 206 216 226 238 232 217 213 212 213 213 213 204 198 215 231 237 229 218 231 229 234 249 278 247 271 257 265 267 258 245 236 237
231 235 235 227 233 237 214 205 201 199 204 218 222 220 221 233 220 200 198 211 229 230 221 216 224 236 240 232 214 219 228 240 258 249 212 255 273 267 273 262 244 235 235
236 235 233 226 230 249 227 211 199 195 208 229 234 226 218 226 227 201 193 217 239 251 238 228 237 248 248 237 211 189 193 208 256 254 204 234 264 276 274 266 261 241 235
232 236 243 235 227 241 236 214 195 189 205 226 235 232 222 222 222 207 206 211 235 245 239 242 255 269 260 238 208 205 204 207 229 249 208 215 241 256 276 261 275 264 245